Regional Weather Roundup
Issued by NWS

Home | Current Version | Previous Version | Text Only | Print | Product List | Glossary Off
Versions: 1 2 3 4 5 6 7 8 9 10 11 12 13 14 15 16 17 18 19 20 21 22 23 24 25 26 27 28 29 30 31 32 33 34 35 36 37 38 39 40 41 42 43 44 45 46 47 48 49 50

000
ASUS43 KOAX 032310
RWRNE

WEATHER ROUNDUP FOR NEBRASKA
NATIONAL WEATHER SERVICE OMAHA NE
600 PM CDT THU SEP 03 2015

NOTES: SATELLITE DATA IS BEING USED TO AUGMENT CLOUD COVER ABOVE
       12000 FEET.
       "FAIR" INDICATES FEW OR NO CLOUDS BELOW 12,000 FEET WITH NO
       SIGNIFICANT WEATHER AND/OR OBSTRUCTIONS TO VISIBILITY.

  * THESE STATIONS DO NOT REPORT WEATHER SUCH AS RAIN...SNOW OR FOG.

NEZ001>004-019>022-054>056-040000-
NEBRASKA PANHANDLE

CITY           SKY/WX    TMP DP  RH WIND       PRES   REMARKS
SCOTTSBLUFF    CLOUDY    83  48  29 S14       29.86S
ALLIANCE       CLOUDY    84  50  30 SW7       29.84S
CHADRON        PTSUNNY   94  44  17 S20       29.75S HX  90
KIMBALL        LGT RAIN  75  48  38 SW9       29.91F
SIDNEY         PTSUNNY   87  47  24 NW16      29.88F
$$

NEZ057>060-069>072-079>082-040000-
SOUTHWEST NEBRASKA

CITY           SKY/WX    TMP DP  RH WIND       PRES   REMARKS
NORTH PLATTE   PTSUNNY   89  62  40 SE8       29.75F
IMPERIAL       CLOUDY    97  47  18 S6        29.77F HX  93
LEXINGTON      PTSUNNY   93  60  32 SE8       29.75F HX  93
MCCOOK         CLOUDY    95  54  25 S13       29.73S HX  93
OGALLALA       PTSUNNY   94  52  23 SE9       29.77S HX  91
$$

NEZ005>010-023>029-035>040-094-040000-
NORTH CENTRAL NEBRASKA

CITY           SKY/WX    TMP DP  RH WIND       PRES   REMARKS
VALENTINE      CLOUDY    95  53  24 SE13      29.74S HX  92
AINSWORTH      CLOUDY    90  61  37 S8        29.76S
BROKEN BOW     SUNNY     92  61  35 S14G20    29.77F HX  92
O`NEILL        PTSUNNY   87  72  60 SE10      29.76F HX  93
ORD            MOSUNNY   93  62  35 S16       29.75S HX  93
THEDFORD       MOSUNNY   93  62  35 S9        29.78R HX  93
$$

NEZ041-046>049-061>064-073>077-083>087-040000-
SOUTH CENTRAL NEBRASKA

CITY           SKY/WX    TMP DP  RH WIND       PRES   REMARKS
GRAND ISLAND   SUNNY     93  68  43 SE13      29.77F HX  97
AURORA         MOSUNNY   92  65  40 S13G18    29.77F HX  94
HASTINGS       SUNNY     94  62  34 S12       29.77S HX  94
HEBRON         MOSUNNY   93  59  31 S18G28    29.78F HX  92
HOLDREGE       MOSUNNY   94  56  27 S15G26    29.75F HX  92
KEARNEY *      SUNNY     93  64  38 SE15      29.75F HX  95
YORK           MOSUNNY   91  68  46 S14       29.78S HX  95
$$

NEZ011>018-030>034-042>045-040000-
NORTHEAST NEBRASKA

CITY           SKY/WX    TMP DP  RH WIND       PRES   REMARKS
NORFOLK        MOSUNNY   90  70  51 SE13G22   29.77S HX  95
ALBION         MOSUNNY   87  70  56 SE9       29.78F HX  92
BLAIR          SUNNY     88  69  54 SE12      29.80S HX  92
COLUMBUS *     MOSUNNY   90  70  51 SE8       29.77S HX  95
FREMONT        SUNNY     91  70  50 SE9       29.79S HX  96
TEKAMAH        SUNNY     89  74  60 S8        29.78S HX  98
WAYNE          SUNNY     86  74  66 SE9       29.78F HX  94
$$

NEZ050>053-065>068-078-088>093-040000-
SOUTHEAST NEBRASKA

CITY           SKY/WX    TMP DP  RH WIND       PRES   REMARKS
LINCOLN        MOSUNNY   93  65  39 S18G28    29.78F HX  95
OMAHA EPPLEY   MOSUNNY   92  71  50 S18G26    29.79F HX  98
BEATRICE       SUNNY     91  67  44 S14G21    29.80F HX  94
FALLS CITY     SUNNY     90  69  50 S12       29.83S HX  94
NEBRASKA CITY  SUNNY     90  63  40 SE14      29.82S HX  90
PLATTSMOUTH    SUNNY     87  69  55 SE12      29.82S HX  90
$$

NEZ044-045-051>053-067-040000-
OMAHA AREA

CITY           SKY/WX    TMP DP  RH WIND       PRES   REMARKS
OMAHA EPPLEY   MOSUNNY   92  71  50 S18G26    29.79F HX  98
BLAIR          SUNNY     88  69  54 SE12      29.80S HX  92
FREMONT        SUNNY     91  70  50 SE9       29.79S HX  96
MILLARD        SUNNY     90  73  57 SE15      29.79S HX  99
OFFUTT AFB     SUNNY     89  71  54 SE15      29.79F HX  95
PLATTSMOUTH    SUNNY     87  69  55 SE12      29.82S HX  90
WAHOO          FAIR      89  73  59 SE10      29.79S HX  96
$$



USA.gov is the U.S. government's official web portal to all federal, state and local government web resources and services.